Weather History for KDFI - February, 2013

Change the Weather History Date:

Saturday, February 23, 2013

  Actual Average Record
Temperature  
Mean Temperature 30 °F -  
Max Temperature 33 °F 42 °F 62 °F (1983)
Min Temperature 27 °F 23 °F -11 °F (1963)
Degree Days  
Heating Degree Days 34    
Moisture  
Dew Point 21 °F    
Average Humidity 70    
Maximum Humidity 93    
Minimum Humidity 60    
Precipitation  
Precipitation 0.00 in - - ()
Sea Level Pressure  
Sea Level Pressure 29.95 in    
Wind  
Wind Speed 7 mph (WSW)    
Max Wind Speed 12 mph    
Max Gust Speed 21 mph    
Visibility 10 miles    
Events      
Averages and records for this station are not official NWS values.
T = Trace of Precipitation, MM = Missing Value Source: NWS Daily Summary

Daily Weather History Graph

Daily Weather History Graph

Search for Another Location

Airport or City:

Trip Planner

Search our weather history database for the weather conditions in past years. The results will help you decide how hot, cold, wet, or windy it might be!

Date:

Astronomy

Feb. 23, 2013 Rise Set
Actual Time 7:20 AM EST 6:21 PM EST
Civil Twilight 6:53 AM EST 6:49 PM EST
Nautical Twilight 6:20 AM EST 7:21 PM EST
Astronomical Twilight 5:49 AM EST 7:53 PM EST
Moon 4:30 PM EST (2/23) 5:43 AM EST (2/23)
Length of Visible Light 11h 56m
Length of Day
11h 00m
Waxing Gibbous, 95% of the Moon is Illuminated
Feb 23
Waxing Gibbous
Feb 25
Full
Mar 4
Last Quarter
Mar 11
New
Mar 19
First Quarter

Hourly Weather History & Observations

Time (EST) Temp. Windchill Dew Point Humidity Pressure Visibility Wind Dir Wind Speed Gust Speed Precip Events Conditions
12:03 AM 33.8 °F 30.8 °F 32.0 °F 93% 29.92 in 7.0 mi WSW 3.5 mph - N/A   Overcast
12:53 AM 33.1 °F 26.1 °F 30.0 °F 89% 29.95 in 9.0 mi SW 8.1 mph - N/A   Overcast
1:25 AM 32.0 °F 25.6 °F 28.4 °F 87% 29.93 in 10.0 mi WSW 6.9 mph 17.3 mph N/A   Overcast
1:53 AM 32.0 °F 26.4 °F 28.0 °F 85% 29.95 in 8.0 mi WSW 5.8 mph - N/A   Overcast
2:07 AM 32.0 °F 26.4 °F 28.4 °F 87% 29.93 in 8.0 mi WSW 5.8 mph - N/A   Overcast
2:35 AM 32.0 °F 25.6 °F 26.6 °F 80% 29.92 in 10.0 mi WSW 6.9 mph 18.4 mph N/A   Overcast
2:53 AM 32.0 °F 23.6 °F 25.0 °F 75% 29.95 in 10.0 mi WSW 10.4 mph 20.7 mph N/A   Overcast
3:53 AM 30.9 °F 21.7 °F 23.0 °F 72% 29.94 in 10.0 mi WSW 11.5 mph 17.3 mph N/A   Overcast
4:53 AM 30.0 °F 23.2 °F 23.0 °F 75% 29.95 in 10.0 mi WSW 6.9 mph - N/A   Overcast
5:01 AM 30.2 °F 22.6 °F 21.2 °F 69% 29.92 in 10.0 mi SW 8.1 mph - N/A   Overcast
5:53 AM 28.9 °F 22.8 °F 21.9 °F 75% 29.96 in 10.0 mi SW 5.8 mph - N/A   Overcast
7:53 AM 28.9 °F 22.8 °F 21.9 °F 75% 29.98 in 9.0 mi WSW 5.8 mph - N/A   Overcast
8:24 AM 28.4 °F 20.4 °F 21.2 °F 74% 29.96 in 8.0 mi WSW 8.1 mph - N/A   Overcast
8:53 AM 28.9 °F 21.1 °F 21.9 °F 75% 29.99 in 9.0 mi WSW 8.1 mph - N/A   Overcast
9:53 AM 30.0 °F 21.7 °F 18.0 °F 61% 29.98 in 10.0 mi WSW 9.2 mph 19.6 mph N/A   Overcast
10:29 AM 28.4 °F 19.1 °F 17.6 °F 64% 29.94 in 10.0 mi West 10.4 mph 19.6 mph N/A   Overcast
10:40 AM 30.2 °F 21.3 °F 17.6 °F 60% 29.95 in 10.0 mi WSW 10.4 mph 19.6 mph N/A   Overcast
10:53 AM 30.0 °F 22.4 °F 18.0 °F 61% 29.98 in 10.0 mi WSW 8.1 mph - N/A   Overcast
11:00 AM 30.2 °F 23.4 °F 19.4 °F 64% 29.96 in 10.0 mi Variable 6.9 mph - N/A   Overcast
11:20 AM 30.2 °F 22.6 °F 17.6 °F 60% 29.95 in 10.0 mi WSW 8.1 mph 18.4 mph N/A   Overcast
11:48 AM 30.2 °F 22.6 °F 17.6 °F 60% 29.94 in 10.0 mi West 8.1 mph 16.1 mph N/A   Overcast
11:53 AM 30.0 °F 20.5 °F 18.0 °F 61% 29.97 in 10.0 mi WSW 11.5 mph 18.4 mph N/A   Overcast
12:26 PM 30.2 °F 20.8 °F 19.4 °F 64% 29.95 in 10.0 mi SW 11.5 mph 17.3 mph N/A   Overcast
12:37 PM 30.2 °F 21.3 °F 19.4 °F 64% 29.95 in 10.0 mi WSW 10.4 mph 16.1 mph N/A   Overcast
12:53 PM 30.9 °F 24.3 °F 19.9 °F 64% 29.96 in 10.0 mi WSW 6.9 mph - N/A   Overcast
1:01 PM 30.2 °F 21.3 °F 19.4 °F 64% 29.94 in 10.0 mi SW 10.4 mph - N/A   Overcast
1:27 PM 30.2 °F 20.8 °F 19.4 °F 64% 29.92 in 10.0 mi SW 11.5 mph - N/A   Overcast
1:49 PM 30.2 °F 22.6 °F 19.4 °F 64% 29.93 in 10.0 mi West 8.1 mph - N/A   Overcast
1:53 PM 30.0 °F 23.2 °F 19.9 °F 66% 29.95 in 10.0 mi WSW 6.9 mph - N/A   Overcast
2:53 PM 30.9 °F 22.8 °F 19.9 °F 64% 29.94 in 10.0 mi West 9.2 mph - N/A   Overcast
3:02 PM 30.2 °F 21.9 °F 21.2 °F 69% 29.91 in 10.0 mi WSW 9.2 mph - N/A   Overcast
3:41 PM 30.2 °F 20.8 °F 19.4 °F 64% 29.91 in 10.0 mi WSW 11.5 mph - N/A   Overcast
3:53 PM 30.9 °F 21.7 °F 19.9 °F 64% 29.94 in 10.0 mi WSW 11.5 mph 16.1 mph N/A   Overcast
4:53 PM 30.9 °F 24.3 °F 19.9 °F 64% 29.95 in 10.0 mi Variable 6.9 mph - N/A   Overcast
5:53 PM 30.0 °F 25.2 °F 19.0 °F 64% 29.95 in 10.0 mi WSW 4.6 mph - N/A   Overcast
6:53 PM 30.0 °F 23.2 °F 19.0 °F 64% 29.96 in 10.0 mi Variable 6.9 mph - N/A   Overcast
7:53 PM 28.9 °F 25.2 °F 19.0 °F 67% 29.97 in 10.0 mi Variable 3.5 mph - N/A   Overcast
8:53 PM 28.9 °F 22.8 °F 19.0 °F 67% 29.98 in 10.0 mi WSW 5.8 mph - N/A   Overcast
11:53 PM 27.0 °F 21.6 °F 19.0 °F 72% 29.96 in 10.0 mi West 4.6 mph - N/A   Overcast